Starlink 11569

operational
NORAD ID: 62910 Int'l Des: 2025-027 Owner: SPXS Country: US Constellation: starlink
LEOCIRCULAR

Über Starlink 11569

Beschreibung wird geladen...

Live-Position

3D-Globus wird geladen...

Nächste Überflüge

Höhenverlauf

Altitude vs Time

uPlot chart will show altitude changes over time

Zweizeiliger Elementsatz

1 62910U 25027D 25350.39739082 .00301134 00000-0 22475-2 0 9994
2 62910 42.9978 129.6132 0001201 182.3295 177.7567 15.71037975 50052
Epoch: 16. Dez. 2025 • Age: 22 hours

Aktueller Status

Höhe 357.7 km
Geschwindigkeit 7.70 km/s
Subsatellitenpunkt 42.88°N, 11.2°E
Startdatum 8. Feb. 2025
Alter 0.8 years
Typ internet

Technische Details

Klassifizierung Payload
Masse 960.00 kg
Trockenmasse 910.00 kg
Gesamtmasse 960.00 kg
Länge 0.30 m
Durchmesser 4.10 m
Spannweite 29.00 m
Form Box + pan
Hersteller SPXS
Bus-Typ Starlink V2MD
Phasenstatus In Orbit
Besitzer/Staat SPXS/US

Große Konstellationen

Loading constellations...